Simultaneous Nadir Overpasses (SNOs) Predictions

Prediction of SNOs between METOP-A and NOAA-19 Satellite Orbit:

Table of predicted SNOs for the next 14.0 days since TLE Epoch: 11/22/2019
Index Date (METOP-A) Time (METOP-A) Lat,Lon (METOP-A) SZA (METOP-A ) Date (NOAA-19) Time (NOAA-19) Lat,Lon (NOAA-19) SZA (NOAA-19 ) Distance(km) Time Diff (sec)
1 11/28/2019 00:58:55 -80.13, -1.61 78.34 11/28/2019 00:57:54 -80.14, -1.73 78.35 2.50 61
2 11/28/2019 01:49:36 80.12, 165.57 101.65 11/28/2019 01:48:53 80.14, 165.50 101.66 3.02 43
3 11/28/2019 02:40:17 -80.12, -27.06 78.34 11/28/2019 02:39:54 -80.12, -27.00 78.34 1.22 23
4 11/28/2019 03:30:58 80.10, 140.11 101.65 11/28/2019 03:30:53 80.12, 140.23 101.67 3.22 5
5 11/28/2019 04:21:39 -80.11, -52.52 78.35 11/28/2019 04:21:55 -80.13, -52.59 78.33 2.73 16
6 11/28/2019 05:12:19 80.12, 114.95 101.68 11/28/2019 05:12:53 80.11, 114.97 101.68 1.61 34
7 11/28/2019 06:03:00 -80.10, -77.98 78.35 11/28/2019 06:03:54 -80.11, -77.87 78.32 2.82 54




NCC Satellite Simultaneous Nadir Overpasses (SNOs) Prediction Service
